When you browse on this site, cookies collect data to enhance your experience and personalize the content and advertising you see.
Visit our Privacy Policy to learn more. By continuing to use the site, you agree to this use of cookies and data.
EN

Hourly Weather Gola

Today, 24 September, Thursday

Time Temperature Precipitation Wind Pressure Humidity
00:00 +17°C° 0 mm 3 mps 743 mmHg 84%
01:00 +17°C° 0 mm 3 mps 743 mmHg 86%
02:00 +17°C° 0.1 mm 3 mps 743 mmHg 88%
03:00 +16°C° 0.1 mm 3 mps 743 mmHg 90%
04:00 +16°C° 0.1 mm 3 mps 743 mmHg 91%
05:00 +16°C° 0.1 mm 3 mps 743 mmHg 89%
06:00 +17°C° 0.1 mm 3 mps 743 mmHg 86%
07:00 +17°C° 0.1 mm 3 mps 743 mmHg 84%
08:00 +19°C° 0 mm 3 mps 744 mmHg 75%
09:00 +20°C° 0 mm 3 mps 744 mmHg 67%
10:00 +22°C° 0 mm 4 mps 744 mmHg 59%
11:00 +23°C° 0 mm 4 mps 744 mmHg 55%
12:00 +25°C° 0 mm 4 mps 744 mmHg 51%
13:00 +26°C° 0 mm 4 mps 744 mmHg 47%
14:00 +26°C° 0 mm 3 mps 744 mmHg 49%
15:00 +25°C° 0 mm 3 mps 744 mmHg 51%
16:00 +25°C° 0 mm 3 mps 744 mmHg 53%
17:00 +23°C° 0 mm 2 mps 744 mmHg 59%
18:00 +21°C° 0 mm 2 mps 744 mmHg 65%
19:00 +20°C° 0 mm 1 mps 744 mmHg 71%
20:00 +19°C° 0 mm 1 mps 744 mmHg 73%
21:00 +19°C° 0 mm 1 mps 744 mmHg 74%
22:00 +18°C° 0 mm 1 mps 744 mmHg 76%
23:00 +18°C° 0 mm 1 mps 743 mmHg 77%

Tomorrow, 25 September, Friday

Time Temperature Precipitation Wind Pressure Humidity
00:00 +17°C° 0 mm 2 mps 743 mmHg 78%
01:00 +16°C° 0 mm 2 mps 743 mmHg 79%
02:00 +16°C° 0 mm 3 mps 742 mmHg 79%
03:00 +16°C° 0 mm 3 mps 741 mmHg 79%
04:00 +15°C° 0 mm 4 mps 740 mmHg 79%
05:00 +17°C° 0 mm 4 mps 739 mmHg 77%
06:00 +17°C° 0 mm 5 mps 739 mmHg 74%
07:00 +17°C° 0 mm 6 mps 738 mmHg 72%
08:00 +17°C° 0.3 mm 6 mps 738 mmHg 73%
09:00 +17°C° 0.3 mm 6 mps 737 mmHg 75%
10:00 +19°C° 0.3 mm 5 mps 737 mmHg 76%
11:00 +17°C° 1.2 mm 5 mps 737 mmHg 81%
12:00 +17°C° 1.2 mm 5 mps 736 mmHg 85%
13:00 +17°C° 1.2 mm 4 mps 736 mmHg 89%
14:00 +15°C° 1 mm 4 mps 736 mmHg 90%
15:00 +15°C° 1 mm 4 mps 737 mmHg 91%
16:00 +14°C° 1 mm 4 mps 737 mmHg 91%
17:00 +14°C° 0.3 mm 4 mps 737 mmHg 90%
18:00 +14°C° 0.3 mm 4 mps 737 mmHg 90%
19:00 +13°C° 0.3 mm 4 mps 738 mmHg 89%
20:00 +13°C° 0.1 mm 4 mps 738 mmHg 87%
21:00 +13°C° 0.1 mm 4 mps 738 mmHg 86%
22:00 +12°C° 0.1 mm 4 mps 739 mmHg 85%
23:00 +12°C° 0 mm 4 mps 739 mmHg 84%

Day after tomorrow, 26 September, Saturday

Time Temperature Precipitation Wind Pressure Humidity
00:00 +12°C° 0 mm 3 mps 738 mmHg 83%
01:00 +11°C° 0 mm 3 mps 738 mmHg 81%
02:00 +11°C° 0.1 mm 3 mps 738 mmHg 81%
03:00 +11°C° 0.1 mm 3 mps 738 mmHg 81%
04:00 +11°C° 0.1 mm 3 mps 738 mmHg 81%
05:00 +11°C° 0.9 mm 4 mps 738 mmHg 84%
06:00 +10°C° 0.9 mm 4 mps 737 mmHg 87%
07:00 +10°C° 0.9 mm 4 mps 737 mmHg 90%
08:00 +9°C° 1.6 mm 5 mps 737 mmHg 91%
09:00 +10°C° 1.6 mm 5 mps 737 mmHg 92%
10:00 +10°C° 1.6 mm 5 mps 736 mmHg 93%
11:00 +10°C° 2.2 mm 5 mps 736 mmHg 94%
12:00 +10°C° 2.2 mm 5 mps 736 mmHg 95%
13:00 +12°C° 2.2 mm 5 mps 735 mmHg 95%
14:00 +12°C° 0.9 mm 5 mps 735 mmHg 96%
15:00 +12°C° 0.9 mm 4 mps 735 mmHg 96%
16:00 +12°C° 0.9 mm 4 mps 735 mmHg 96%
17:00 +12°C° 0.2 mm 4 mps 735 mmHg 96%
18:00 +11°C° 0.2 mm 4 mps 736 mmHg 95%
19:00 +11°C° 0.2 mm 4 mps 736 mmHg 95%
20:00 +11°C° 0.1 mm 4 mps 736 mmHg 95%
21:00 +10°C° 0.1 mm 4 mps 737 mmHg 94%
22:00 +10°C° 0.1 mm 4 mps 737 mmHg 94%
23:00 +9°C° 2.1 mm 5 mps 737 mmHg 95%

27 September, Sunday

Time Temperature Precipitation Wind Pressure Humidity
00:00 +9°C° 2.1 mm 5 mps 737 mmHg 95%
01:00 +9°C° 2.1 mm 5 mps 737 mmHg 96%
02:00 +9°C° 2.4 mm 5 mps 737 mmHg 96%
03:00 +9°C° 2.4 mm 6 mps 736 mmHg 95%
04:00 +9°C° 2.4 mm 6 mps 736 mmHg 95%
05:00 +9°C° 2.2 mm 6 mps 737 mmHg 95%
06:00 +9°C° 2.2 mm 6 mps 737 mmHg 95%
07:00 +9°C° 2.2 mm 6 mps 737 mmHg 94%
08:00 +9°C° 1.1 mm 6 mps 737 mmHg 94%
09:00 +9°C° 1.1 mm 6 mps 737 mmHg 94%
10:00 +9°C° 1.1 mm 6 mps 737 mmHg 94%
11:00 +9°C° 1.5 mm 7 mps 737 mmHg 94%
12:00 +9°C° 1.5 mm 7 mps 737 mmHg 94%
13:00 +9°C° 1.5 mm 7 mps 737 mmHg 93%
14:00 +9°C° 1.6 mm 7 mps 737 mmHg 93%
15:00 +8°C° 1.6 mm 7 mps 738 mmHg 93%
16:00 +8°C° 1.6 mm 7 mps 738 mmHg 93%
17:00 +8°C° 1.4 mm 7 mps 738 mmHg 93%
18:00 +8°C° 1.4 mm 6 mps 738 mmHg 94%
19:00 +8°C° 1.4 mm 6 mps 738 mmHg 94%
20:00 +8°C° 0.6 mm 5 mps 739 mmHg 94%
21:00 +8°C° 0.6 mm 5 mps 739 mmHg 95%
22:00 +8°C° 0.6 mm 4 mps 739 mmHg 95%
23:00 +10°C° 0.1 mm 4 mps 739 mmHg 95%

28 September, Monday

Time Temperature Precipitation Wind Pressure Humidity
00:00 +10°C° 0.1 mm 3 mps 739 mmHg 96%
01:00 +10°C° 0.1 mm 3 mps 739 mmHg 96%
02:00 +10°C° 0.3 mm 3 mps 739 mmHg 96%
03:00 +10°C° 0.3 mm 3 mps 739 mmHg 96%
04:00 +10°C° 0.3 mm 3 mps 739 mmHg 96%
05:00 +10°C° 0.2 mm 4 mps 739 mmHg 95%
06:00 +10°C° 0.2 mm 4 mps 740 mmHg 94%
07:00 +10°C° 0.2 mm 4 mps 740 mmHg 94%
08:00 +9°C° 0.1 mm 5 mps 740 mmHg 91%
09:00 +9°C° 0.1 mm 5 mps 741 mmHg 89%
10:00 +9°C° 0.1 mm 5 mps 741 mmHg 86%
11:00 +10°C° 0 mm 5 mps 741 mmHg 83%
12:00 +12°C° 0 mm 5 mps 742 mmHg 80%
13:00 +11°C° 0 mm 6 mps 742 mmHg 77%
14:00 +12°C° 0 mm 5 mps 742 mmHg 77%
15:00 +10°C° 0 mm 5 mps 742 mmHg 77%
16:00 +10°C° 0 mm 5 mps 742 mmHg 78%
17:00 +11°C° 0 mm 4 mps 743 mmHg 78%
18:00 +11°C° 0 mm 4 mps 743 mmHg 79%
19:00 +10°C° 0 mm 4 mps 743 mmHg 79%
20:00 +10°C° 0 mm 4 mps 743 mmHg 80%
21:00 +10°C° 0 mm 4 mps 744 mmHg 81%
22:00 +9°C° 0 mm 3 mps 744 mmHg 82%
23:00 +9°C° 0 mm 3 mps 744 mmHg 83%

29 September, Tuesday

Time Temperature Precipitation Wind Pressure Humidity
00:00 +8°C° 0 mm 3 mps 744 mmHg 85%
01:00 +7°C° 0 mm 3 mps 744 mmHg 87%
02:00 +7°C° 0 mm 3 mps 744 mmHg 88%
03:00 +7°C° 0 mm 3 mps 744 mmHg 88%
04:00 +5°C° 0 mm 3 mps 744 mmHg 89%
05:00 +7°C° 0 mm 3 mps 744 mmHg 89%
06:00 +7°C° 0 mm 3 mps 745 mmHg 88%
07:00 +7°C° 0 mm 2 mps 745 mmHg 88%
08:00 +9°C° 0 mm 2 mps 745 mmHg 81%
09:00 +10°C° 0 mm 2 mps 745 mmHg 75%
10:00 +13°C° 0 mm 2 mps 745 mmHg 68%
11:00 +14°C° 0 mm 1 mps 745 mmHg 64%
12:00 +15°C° 0 mm 1 mps 745 mmHg 60%
13:00 +16°C° 0 mm 1 mps 746 mmHg 56%
14:00 +16°C° 0 mm 1 mps 746 mmHg 57%
15:00 +16°C° 0 mm 1 mps 746 mmHg 59%
16:00 +16°C° 0 mm 1 mps 746 mmHg 60%
17:00 +15°C° 0 mm 1 mps 746 mmHg 64%
18:00 +14°C° 0 mm 2 mps 747 mmHg 68%
19:00 +12°C° 0 mm 2 mps 747 mmHg 73%
20:00 +12°C° 0 mm 2 mps 747 mmHg 75%
21:00 +10°C° 0 mm 2 mps 747 mmHg 77%
22:00 +10°C° 0 mm 2 mps 748 mmHg 80%
23:00 +10°C° 0 mm 2 mps 748 mmHg 83%
Show more